Flag for U.S.A. Weather past 2 weeks in Sunrise Manor, Nevada, U.S.A.

Now
94 °F

Clear.


Feels Like: 94 °F
Forecast: 82 / 103 °F
Wind: 17 mph from Southeast

Location: Nellis Air Force Base

Current Time: Jul 26, 2014 at 12:30:02 AM

Latest Report: Jul 25, 2014 at 11:58 PM


Visibility: 10 mi

Pressure: 29.78 "Hg

Humidity: 31%

Dew point: 59 °F

Location of Sunrise ManorLocation

Historic Weather in Sunrise Manor — Graph

°F

Sunrise Manor temperature yesterday

Maximum temperature yesterday: 103 °F (at 4:58 PM)
Minimum temperature yesterday: 86 °F (at 5:58 AM)
Average temperature yesterday: 98 °F

Past Weeks' High & Low Weather Summary

 TemperatureHumidityPressure
High110 °F (Jul 23, 3:58 PM)60% (Jul 11, 5:58 AM)29.99 "Hg (Jul 11, 5:58 AM)
Low76 °F (Jul 22, 5:58 AM)5% (Jul 23, 2:58 PM)29.61 "Hg (Jul 24, 5:58 PM)
Average95 °F19%29.80 "Hg
* Reported Jul 10 10:58 PM — Jul 25 10:58 PM, Sunrise Manor, Weather by CustomWeather, © 2014

Note: Actual official high and low records may vary slightly from our data, if they occured in-between our weather recording intervals... More about our weather records

Advertising

Sunrise Manor weather history for previous 24 hours

 ConditionsComfort  
Time TempWeatherWind HumidityBarometerVisibility
10:58 PM
Jul 25
96 °FPassing clouds.13 mph28%29.76 "Hg10 mi
9:58 PM97 °FPassing clouds.8 mph25%29.75 "Hg10 mi
8:58 PM100 °FPassing clouds.9 mph21%29.74 "Hg10 mi
7:58 PM100 °FPartly sunny.15 mph21%29.72 "Hg10 mi
6:58 PM102 °FSunny.9 mph17%29.70 "Hg10 mi
5:58 PM103 °FSunny.13 mph16%29.70 "Hg10 mi
4:58 PM103 °FSunny.5 mph16%29.71 "Hg10 mi
3:58 PM103 °FSunny.13 mph17%29.73 "Hg10 mi
2:58 PM101 °FSunny.15 mph20%29.75 "Hg10 mi
2:00 PM102 °FPassing clouds.15 mph20%29.86 "Hg10 mi
1:58 PM102 °FPassing clouds.17 mph20%29.77 "Hg10 mi
12:58 PM101 °FPassing clouds.16 mph22%29.78 "Hg10 mi
11:58 AM102 °FPassing clouds.16 mph20%29.78 "Hg10 mi
10:58 AM99 °FScattered clouds.13 mph22%29.79 "Hg10 mi
9:58 AM97 °FPassing clouds.12 mph24%29.79 "Hg10 mi
8:58 AM96 °FPassing clouds.14 mph25%29.78 "Hg10 mi
7:58 AM95 °FScattered clouds.No wind24%29.77 "Hg10 mi
6:58 AM90 °FSunny.8 mph31%29.75 "Hg10 mi
5:58 AM86 °FClear.8 mph34%29.74 "Hg10 mi
4:58 AM92 °FClear.3 mph26%29.72 "Hg10 mi
3:58 AM92 °FClear.8 mph26%29.70 "Hg10 mi
2:58 AM94 °FClear.9 mph27%29.70 "Hg10 mi
1:58 AM95 °FClear.16 mph25%29.70 "Hg10 mi
12:58 AM96 °FClear.18 mph24%29.80 "Hg10 mi
Weather by CustomWeather, © 2014

See weather overviewHow to use our weather pages